{"data":{"norad_id":62083,"intl_designator":"2024-219C","name":"KINEIS-5E","alt_names":[],"object_type":"PAYLOAD","status":"ACTIVE","operator":null,"country":"FR","launch_date":"2024-11-25","launch_site_code":"RLLB","launch_vehicle":null,"mission":null,"orbit_class":"UNKNOWN","rcs_meters":null,"size_class":null,"mass_kg":null,"dimensions":null,"purposes":[],"wikipedia_slug":null,"has_3d_model":false,"image_url":null,"decayed_at":null,"tle_current":{"epoch":"2026-05-25T04:56:07.708992Z","epoch_age_seconds":56557,"freshness":"FRESH","line1":"1 62083U 24219C   26145.20564478  .00000541  00000+0  92756-4 0  9993","line2":"2 62083  97.8976 304.8099 0005929 353.4067   6.7062 14.72504992 80386","mean_motion":14.72504992,"eccentricity":0.0005929,"inclination_deg":97.8976,"raan_deg":304.8099,"arg_perigee_deg":353.4067,"mean_anomaly_deg":6.7062,"bstar":9.2756e-5,"rev_number":8038,"period_min":97.792537738303,"perigee_km":648.9137151078,"apogee_km":657.25133522074,"semimajor_km":7031.2195251643,"source":"CELESTRAK","updated_at":"2026-05-25T13:38:02.757505Z"}}}